Weather observations for the past three days for
La Pointe - Major Gilbert Field
Imperial (Metric)
Date Time (cdt) Wind (mph) Vis. (mi.) Weather Sky Cond. Temperature (ºF) Relative Humidity Wind Chill (°F) Heat Index (°F) Pressure Precipitation (in)
Air Dwpt 6 hour altimeter (in) sea level (mb) 1 hr 3 hr 6 hr
Max. Min.
17 10:55 N 13 G 17 10.00 Overcast BKN032 BKN038 OVC065 64.8 51.8 63% 30.1 0.0
17 10:35 N 12 G 16 10.00 Overcast BKN031 OVC037 62.2 50.9 67% 30.1 0.0
17 10:15 N 8 G 16 10.00 Overcast OVC035 61.9 50.7 67% 30.09 0.0
17 09:55 N 7 G 17 10.00 Overcast SCT030 BKN038 OVC046 62.8 50.9 65% 30.08 0.0
17 09:35 N 10 G 16 10.00 Overcast BKN028 BKN035 OVC050 61 49.8 67% 30.08 0.0
17 09:15 N 10 G 17 10.00 Overcast BKN028 OVC045 60.8 49.8 67% 30.07 0.0
17 08:55 N 9 G 18 10.00 Overcast BKN028 OVC042 60.4 49.8 68% 30.07 0.0
17 08:35 NW 10 G 17 10.00 Overcast BKN026 BKN031 OVC040 60.6 50.5 70% 30.06 0.0
17 08:15 N 9 10.00 Overcast SCT024 BKN030 OVC040 59.4 50.2 72% 30.05 0.0
17 07:55 N 10 G 17 10.00 Overcast SCT030 OVC041 59.5 50 71% 30.05 0.0
17 07:35 N 9 G 16 10.00 Overcast OVC041 59.5 49.8 70% 30.04 0.0
17 07:15 N 10 G 17 10.00 Overcast SCT031 OVC041 59.4 49.5 70% 30.03 0.0
17 06:55 N 10 G 17 10.00 Overcast SCT031 OVC037 59 48.7 69% 30.03 0.0
17 06:35 N 8 10.00 Overcast OVC031 58.5 48.2 69% 30.02 0.0
17 06:15 N 9 10.00 Overcast OVC035 58.6 47.7 67% 30.01 0.0
17 05:55 NW 9 G 16 10.00 Overcast OVC035 58.3 47.8 68% 30 0.0
17 05:35 NW 12 G 18 10.00 Overcast OVC035 58.3 47.8 68% 30 0.0
17 05:15 NW 9 G 17 10.00 Overcast OVC035 58.6 48.2 68% 29.99 0.0
17 04:55 N 10 G 16 10.00 Overcast SCT029 OVC038 58.6 48.7 70% 29.98 0.0
17 04:35 NW 8 10.00 Overcast SCT032 BKN038 OVC110 58.3 48.2 69% 29.97 0.0
17 04:15 N 8 10.00 Overcast SCT038 OVC110 58.3 48.2 69% 29.97 0.0
17 03:55 N 9 G 16 10.00 Overcast BKN100 OVC120 58.5 48.2 69% 29.96 0.0
17 03:35 N 9 10.00 Mostly Cloudy BKN100 BKN120 58.8 49.8 72% 29.96 0.0
17 03:15 N 12 G 18 10.00 Overcast OVC110 59.5 48.4 67% 29.95 0.0
17 02:55 NW 7 10.00 Overcast OVC110 59.9 48.7 67% 29.95 0.0
17 02:35 NW 8 10.00 Mostly Cloudy BKN110 60.1 49.8 69% 29.94 0.0
17 02:15 NW 6 10.00 Mostly Cloudy BKN110 60.6 49.6 67% 29.94 0.0
17 01:55 NW 7 10.00 Overcast OVC110 61 50.2 68% 29.94 0.0
17 01:35 N 8 10.00 Overcast OVC110 61.3 52 72% 29.94 0.0
17 01:15 NW 9 10.00 Overcast OVC110 61.7 52.9 73% 29.93 0.0
17 00:55 NW 8 10.00 Overcast OVC110 61.9 53.1 73% 29.93 0.0
17 00:35 NW 7 10.00 Overcast OVC110 62.4 52.9 71% 29.92 0.0
17 00:15 NW 5 10.00 Overcast OVC110 62.6 53.8 73% 29.92 0.0
16 23:55 NW 9 10.00 Mostly Cloudy BKN110 62.6 53.6 73% 29.92 0.0
16 23:35 NW 9 10.00 Mostly Cloudy BKN110 62.6 53.6 73% 29.91 0.0
16 23:15 W 7 10.00 Mostly Cloudy BKN120 63 52.9 70% 29.91 0.0
16 22:55 NW 6 10.00 Partly Cloudy SCT120 62.6 53.1 71% 29.91 0.0
16 22:35 NW 6 10.00 Partly Cloudy SCT120 63.3 52.5 68% 29.9 0.0
16 22:15 NW 6 10.00 Mostly Cloudy BKN110 63.5 53.4 70% 29.9 0.0
16 21:55 NW 6 10.00 Mostly Cloudy BKN110 64.4 53.8 69% 29.9 0.0
16 21:35 NW 6 10.00 Overcast OVC110 64.8 54.5 70% 29.89 0.0
16 21:15 NW 10 G 17 10.00 Overcast OVC110 65.3 53.8 66% 29.88 0.0
16 20:55 NW 7 10.00 Mostly Cloudy BKN100 BKN120 65.3 53.2 65% 29.88 0.0
16 20:35 NW 7 10.00 Mostly Cloudy SCT085 BKN110 64.9 52.5 64% 29.88 0.0
16 20:15 NW 7 10.00 Mostly Cloudy BKN110 64.9 52.3 64% 29.88 0.0
16 19:55 W 5 10.00 Overcast OVC100 65.5 53.6 66% 29.88 0.0
16 19:35 Calm 10.00 Overcast OVC100 66.6 54.7 66% 29.88 0.0
16 19:15 N 3 10.00 Overcast OVC110 66.2 54.7 67% 29.88 0.0
16 18:55 NW 10 G 16 10.00 Overcast SCT080 OVC110 66.6 54.9 66% 29.88 0.0
16 18:35 NW 9 10.00 Overcast SCT080 OVC110 69.8 52.9 55% 29.87 0.0
16 18:15 NW 7 10.00 Overcast BKN090 OVC110 71.1 51.8 51% 29.87 0.0
16 17:55 W 7 G 17 10.00 Overcast OVC075 71.4 50 47% 29.87 0.0
16 17:35 W 10 G 17 10.00 Overcast SCT075 OVC085 72.5 49.1 44% 29.86 0.0
16 17:15 NW 8 10.00 Overcast BKN085 OVC110 72.7 48.2 42% 29.85 0.0
16 16:55 NW 9 G 16 10.00 Overcast OVC100 74.8 48.2 39% 29.85 0.0
16 16:35 W 10 G 18 10.00 Overcast SCT070 OVC100 74.7 48.9 40% 29.85 0.0
16 16:15 W 13 G 17 10.00 Overcast SCT070 SCT085 OVC110 75.4 48.7 39% 78 29.85 0.0
16 15:55 W 10 10.00 Overcast SCT070 BKN100 OVC120 75.6 49.6 40% 78 29.84 0.0
16 15:35 NW 8 10.00 Overcast BKN100 OVC120 75.2 48 38% 77 29.84 0.0
16 15:15 NW 9 10.00 Overcast SCT065 SCT080 OVC110 74.7 47.1 38% 29.84 0.0
16 14:55 W 9 10.00 Overcast SCT065 BKN090 OVC110 75 47.8 38% 77 29.84 0.0
16 14:35 NW 8 G 18 10.00 Overcast OVC100 74.5 48.2 40% 29.84 0.0
16 14:15 NW 6 10.00 Overcast SCT060 SCT075 OVC110 73.8 47.8 40% 29.84 0.0
16 13:55 W 9 G 16 10.00 Overcast SCT060 BKN100 OVC120 75 49.6 41% 78 29.84 0.0
16 13:35 W 9 G 18 10.00 Overcast OVC110 73.6 48.9 42% 29.84 0.0
16 13:15 NW 10 G 16 10.00 Overcast SCT050 OVC100 73.4 50.4 44% 29.84 0.0
16 12:55 NW 10 G 17 10.00 Overcast SCT050 OVC100 74.1 53.2 48% 29.84 0.0
16 12:35 NW 10 G 16 10.00 Overcast SCT055 OVC100 73.6 53.1 49% 29.84 0.0
16 12:15 W 10 G 17 10.00 Overcast OVC100 72.7 52 48% 29.84 0.0
16 11:55 NW 7 G 17 10.00 Overcast SCT090 OVC110 72.9 52.2 48% 29.84 0.0
16 11:35 NW 10 G 16 10.00 Overcast BKN100 OVC120 72.5 52.9 50% 29.83 0.0
16 11:15 W 9 10.00 Overcast BKN100 OVC120 72.9 54.9 53% 29.82 0.0
16 10:55 NW 7 10.00 Mostly Cloudy SCT080 BKN100 BKN120 71.8 54.5 55% 29.82 0.0
16 10:35 NW 8 10.00 Overcast SCT080 SCT090 OVC110 71.8 56.1 58% 29.82 0.0
16 10:15 NW 7 10.00 Overcast BKN100 OVC110 71.2 56.7 60% 29.82 0.0
16 09:55 W 7 10.00 Overcast BKN100 OVC120 70.7 58.6 66% 29.82 0.0
16 09:35 NW 7 10.00 Overcast BKN100 OVC110 69.4 58.5 68% 29.81 0.0
16 09:15 NW 5 10.00 Mostly Cloudy BKN100 69.4 58.3 68% 29.8 0.0
16 08:55 W 7 10.00 Overcast BKN100 OVC120 68.9 59.7 73% 29.81 0.0
16 08:35 W 7 10.00 Overcast OVC100 67.5 59.9 77% 29.8 0.0
16 08:15 W 6 10.00 Overcast OVC090 66.9 60.1 79% 29.8 0.0
16 07:55 W 7 10.00 Overcast BKN090 OVC110 68 59.4 74% 29.8 0.0
16 07:35 W 5 10.00 Overcast SCT085 OVC110 66.2 60.8 83% 29.79 0.0
16 07:15 NW 7 10.00 Mostly Cloudy BKN110 64.9 58.3 79% 29.78 0.0
16 06:55 W 6 10.00 Mostly Cloudy BKN110 61.5 60.3 96% 29.78 0.0
16 06:35 Calm 10.00 Mostly Cloudy BKN110 60.1 59.2 97% 29.77 0.0
16 06:15 Calm 4.00 Fog/Mist OVC110 58.1 57.2 97% 29.78 0.0
16 05:55 Calm 10.00 Mostly Cloudy BKN110 59.7 58.6 96% 29.77 0.0
16 05:35 Calm 10.00 Mostly Cloudy BKN110 59.9 59 97% 29.77 0.0
16 05:15 Calm 7.00 Mostly Cloudy BKN110 59.5 58.6 97% 29.77 0.0
16 04:55 Calm 7.00 Mostly Cloudy BKN110 59.9 59 97% 29.76 0.0
16 04:35 Calm 10.00 Mostly Cloudy BKN110 61.3 60.4 97% 29.76 0.0
16 04:15 W 6 10.00 Mostly Cloudy BKN110 63.1 61.7 95% 29.77 0.0
16 03:55 W 7 10.00 Mostly Cloudy BKN110 63.1 61.9 96% 29.76 0.0
16 03:35 W 3 10.00 Mostly Cloudy BKN120 63 61.9 96% 29.76 0.0
16 03:15 W 3 10.00 Mostly Cloudy BKN120 0 0 0% 29.77 0.0
16 02:55 W 5 10.00 Mostly Cloudy BKN110 60.8 59.9 97% 29.76 0.0
16 02:35 Calm 5.00 Fog/Mist SCT090 BKN110 56.5 55.6 97% 29.77 0.0
16 02:15 Calm 0.75 Fog/Mist OVC100 55.2 54.3 97% 29.77 0.0
16 02:00 Calm 2.00 Fog/Mist SCT003 BKN100 OVC120 57 56.1 97% 29.77 0.0
16 01:35 Calm 1.50 Fog/Mist SCT003 SCT085 OVC110 56.1 55.2 97% 29.77 0.0
16 01:15 Calm 0.75 Fog/Mist SCT003 OVC110 56.5 55.6 97% 29.77 0.0
16 00:55 Calm 0.25 Fog BKN003 OVC110 56.1 55.2 97% 29.77 0.0 0.01
16 00:35 Calm 0.50 Fog BKN003 OVC110 57.2 56.3 97% 29.76 0.0 0.01
16 00:15 Calm 0.25 Fog BKN003 OVC110 57.6 56.7 97% 29.76 0.0 0.01
15 23:55 Calm 1.25 Fog/Mist BKN095 OVC120 58.3 57.4 97% 29.76 0.0
15 23:35 Calm 1.25 Fog/Mist SCT070 BKN085 OVC110 58.1 57.2 97% 29.76 0.0
15 23:15 Calm 1.00 Fog/Mist BKN070 OVC085 58.5 57.6 97% 29.76 0.0
15 22:55 Calm 1.50 Fog/Mist SCT075 OVC100 57.6 56.7 97% 29.75 0.0
15 22:35 Calm 7.00 Overcast BKN100 OVC120 58.6 57.7 97% 29.76 0.0
15 22:15 Calm 10.00 Overcast SCT048 SCT085 OVC110 60.4 59.5 97% 29.76 0.0
15 21:55 Calm 10.00 Overcast BKN048 BKN065 OVC090 60.6 59 94% 29.76 0.0
15 21:35 Calm 10.00 Overcast SCT050 BKN090 OVC110 62.4 59.4 90% 29.75 0.0
15 21:15 E 3 10.00 Mostly Cloudy SCT095 BKN110 62.6 59.4 89% 29.74 0.0
15 20:55 E 3 10.00 Overcast SCT055 BKN095 OVC110 63.7 59.5 86% 29.72 0.0
15 20:35 E 3 10.00 Overcast SCT055 BKN080 OVC110 64.6 59.7 84% 29.72 0.0
15 20:15 E 3 10.00 Overcast OVC110 65.7 59.9 82% 29.72 0.0
15 19:55 E 3 10.00 Overcast SCT070 OVC110 66.4 60.3 81% 29.72 0.0
15 19:35 E 5 10.00 Overcast BKN070 OVC080 66.9 60.4 80% 29.71 0.0
15 19:15 E 6 10.00 Overcast SCT060 BKN100 OVC120 66.9 60.8 81% 29.72 0.0
15 18:55 E 7 10.00 Overcast SCT060 BKN090 OVC110 68 61.2 79% 29.71 0.0
15 18:35 NE 3 10.00 Overcast BKN060 BKN070 OVC090 68.9 61 76% 29.71 0.0
15 18:15 NE 6 10.00 Overcast SCT060 BKN070 OVC100 68.7 60.8 76% 29.71 0.0
15 17:55 NE 8 10.00 Mostly Cloudy BKN110 70 61.7 75% 29.71 0.0
15 17:35 NE 10 10.00 Mostly Cloudy BKN110 70 62.8 78% 29.7 0.0
15 17:15 NE 6 10.00 Mostly Cloudy SCT039 SCT050 BKN090 68 63 84% 29.7 0.0
15 16:55 N 12 G 18 10.00 Overcast OVC060 68.9 62.1 79% 29.71 0.0
15 16:35 N 15 G 21 10.00 Overcast OVC048 70.9 64.8 81% 29.69 0.0
15 16:15 NE 6 10.00 Overcast BKN048 OVC050 73.9 66.2 77% 29.68 0.0
15 15:55 NE 6 10.00 Thunderstorm in Vicinity SCT050 BKN080 BKN090 76.5 65.7 69% 78 29.67 0.0
15 15:35 N 9 10.00 Mostly Cloudy SCT047 SCT060 BKN095 77 66.9 71% 79 29.67 0.0
15 15:15 E 3 10.00 Mostly Cloudy SCT050 BKN060 BKN085 76.5 68.5 77% 78 29.66 0.0
15 14:55 Calm 10.00 Partly Cloudy SCT060 SCT070 SCT110 78.1 67.8 71% 80 29.66 0.0
15 14:35 Calm 10.00 Partly Cloudy SCT049 SCT070 SCT110 75.9 67.8 76% 77 29.67 0.0
15 14:15 N 5 10.00 Thunderstorm Light Rain SCT047 BKN070 BKN095 72.7 67.5 84% 29.67 0.0
15 13:55 N 6 10.00 Overcast SCT049 BKN075 OVC095 77.7 65.3 66% 80 29.67 0.0
15 13:35 Calm 10.00 Overcast SCT047 BKN070 OVC095 78.8 64.2 61% 81 29.67 0.0
15 13:15 E 5 10.00 Mostly Cloudy BKN095 78.6 63.7 60% 80 29.68 0.0
15 12:55 S 3 10.00 Mostly Cloudy SCT060 SCT070 BKN110 80.8 63.7 56% 82 29.69 0.0
15 12:35 S 5 10.00 Mostly Cloudy SCT060 BKN070 BKN100 78.3 63 59% 80 29.71 0.0
15 12:15 S 5 10.00 Partly Cloudy SCT100 77.5 62.6 60% 79 29.72 0.0
15 11:55 S 6 10.00 Partly Cloudy SCT100 78.4 62.1 57% 80 29.73 0.0
15 11:35 SW 5 10.00 Overcast BKN100 OVC120 76.6 61.7 60% 78 29.75 0.0
15 11:15 Calm 10.00 Mostly Cloudy BKN100 BKN120 74.5 59.7 60% 29.76 0.0
15 10:55 SW 3 10.00 Mostly Cloudy BKN100 BKN120 73.4 60.1 63% 29.76 0.0
15 10:35 SW 3 10.00 Overcast OVC100 72.7 60.3 65% 29.77 0.0
15 10:15 Calm 10.00 Partly Cloudy SCT080 SCT100 72.7 60.1 65% 29.76 0.0
15 09:55 SW 3 10.00 Partly Cloudy SCT110 73.8 58.3 59% 29.77 0.0
15 09:35 Calm 10.00 Partly Cloudy SCT100 SCT120 71.8 60.3 67% 29.77 0.0
15 09:15 Calm 10.00 Mostly Cloudy BKN100 71.8 59.5 65% 29.77 0.0
15 08:55 Calm 10.00 Mostly Cloudy BKN100 BKN120 69.1 61.5 77% 29.78 0.0
15 08:35 Calm 10.00 Mostly Cloudy BKN100 BKN120 68 61 78% 29.79 0.0
15 08:15 SW 5 10.00 Partly Cloudy SCT100 SCT120 68 62.1 81% 29.82 0.0
15 07:55 SW 5 10.00 Partly Cloudy SCT100 SCT120 68 63 84% 29.81 0.0
15 07:35 Calm 10.00 Mostly Cloudy BKN100 BKN120 66.2 63.1 90% 29.81 0.0
15 07:15 Calm 10.00 Mostly Cloudy SCT090 BKN110 64.9 63 93% 29.8 0.0
15 06:55 SW 5 10.00 Mostly Cloudy BKN110 63.1 62.2 97% 29.82 0.0
15 06:35 Calm 10.00 Overcast OVC110 59 58.1 97% 29.8 0.0
15 06:15 Calm 10.00 Overcast OVC110 58.8 57.9 97% 29.8 0.0
15 05:55 Calm 10.00 Mostly Cloudy BKN110 58.5 57.6 97% 29.8 0.0
15 05:35 SW 3 0.75 Fog/Mist OVC110 57.6 56.7 97% 29.82 0.0
15 05:15 Calm 1.75 Fog/Mist OVC110 57.4 56.5 97% 29.79 0.0
15 04:55 Calm 5.00 Fog/Mist BKN110 58.5 57.6 97% 29.8 0.0
15 04:35 Calm 1.25 Fog/Mist OVC110 58.3 57.4 97% 29.81 0.0
15 04:15 Calm 2.00 Fog/Mist OVC110 59.2 58.3 97% 29.82 0.0
15 03:55 Calm 10.00 Overcast OVC110 58.8 57.9 97% 29.82 0.0
15 03:35 Calm 4.00 Fog/Mist OVC100 58.1 57.2 97% 29.82 0.0
15 03:15 Calm 2.50 Fog/Mist OVC100 58.6 57.7 97% 29.82 0.0
15 02:55 Calm 10.00 Mostly Cloudy BKN100 BKN120 58.5 57.6 97% 29.83 0.0
15 02:35 Calm 10.00 Mostly Cloudy BKN090 BKN110 57.6 56.7 97% 29.83 0.0
15 02:15 Calm 10.00 Mostly Cloudy BKN110 58.8 57.9 97% 29.83 0.0
15 01:55 Calm 10.00 Overcast SCT075 BKN095 OVC110 59.4 58.1 96% 29.84 0.0
15 01:35 Calm 10.00 Overcast SCT075 BKN095 OVC120 59.5 58.5 96% 29.83 0.0
15 01:15 Calm 10.00 Overcast BKN095 OVC120 60.1 59.2 97% 29.84 0.0
15 00:55 Calm 10.00 Mostly Cloudy SCT075 BKN090 BKN120 60.4 59.4 96% 29.84 0.0
15 00:35 Calm 10.00 Mostly Cloudy SCT075 BKN090 BKN110 62.8 59.5 89% 29.83 0.0
15 00:20 Calm 10.00 Mostly Cloudy SCT090 BKN110 61.9 59.5 92% 29.84 0.0
14 23:55 Calm 10.00 Mostly Cloudy BKN110 62.2 60.1 93% 29.84 0.0
14 23:35 Calm 10.00 Mostly Cloudy BKN110 62.2 59.2 90% 29.84 0.0
14 23:15 Calm 10.00 Overcast OVC110 65.1 61.3 88% 29.83 0.0
14 22:55 Calm 10.00 Mostly Cloudy BKN110 65.3 59.9 83% 29.83 0.0
14 22:35 Calm 10.00 Partly Cloudy SCT110 68.5 59 72% 29.83 0.0
14 22:15 Calm 10.00 Partly Cloudy SCT110 70.3 59.2 68% 29.83 0.0
14 21:55 Calm 10.00 Partly Cloudy SCT120 67.5 62.8 85% 29.83 0.0
14 21:35 Calm 10.00 Partly Cloudy SCT120 72.3 61 68% 29.82 0.0
14 21:15 Calm 10.00 Fair CLR 74.1 60.4 62% 29.82 0.0
14 20:55 Calm 10.00 Fair CLR 74.8 60.8 62% 29.82 0.0
14 20:35 Calm 10.00 Fair CLR 76.6 61 59% 78 29.82 0.0
14 20:15 Calm 10.00 Fair CLR 78.3 61.5 57% 80 29.82 0.0
14 19:55 Calm 10.00 Fair CLR 79.5 61.3 54% 81 29.82 0.0
14 19:35 N 5 10.00 Fair CLR 80.8 61.3 52% 82 29.82 0.0
14 19:15 NW 5 10.00 Fair CLR 81.7 61.2 50% 82 29.82 0.0
14 18:55 NW 6 10.00 Fair CLR 82.4 60.6 48% 83 29.82 0.0
14 18:35 NW 6 10.00 Fair CLR 83.3 61.7 48% 84 29.8 0.0
14 18:15 NW 7 10.00 Fair CLR 84.2 61.9 47% 85 29.81 0.0
14 17:55 NW 7 10.00 Partly Cloudy SCT065 SCT080 85.1 63 48% 86 29.81 0.0
14 17:35 NW 9 10.00 Partly Cloudy SCT065 SCT080 86 62.6 46% 87 29.81 0.0
14 17:15 W 7 10.00 Partly Cloudy SCT055 86.5 63 45% 87 29.8 0.0
14 16:55 W 8 10.00 Partly Cloudy SCT055 0 0 0% 29.8 0.0
14 16:35 W 9 10.00 Partly Cloudy SCT055 0 0 0% 29.8 0.0
14 16:15 W 8 10.00 Partly Cloudy SCT055 0 0 0% 29.79 0.0
14 15:55 W 7 10.00 Partly Cloudy SCT055 86.9 64.4 47% 88 29.8 0.0
14 15:35 W 9 10.00 Partly Cloudy SCT055 0 0 0% 29.8 0.0
14 15:15 W 9 10.00 Fair CLR 86.4 64.9 49% 88 29.8 0.0
14 14:55 W 8 10.00 Partly Cloudy SCT045 86.4 67.5 53% 89 29.8 0.0
14 14:35 W 6 10.00 Fair CLR 0 0 0% 29.8 0.0
14 14:15 NW 6 10.00 Fair CLR 85.8 68.7 57% 90 29.8 0.0
14 13:55 W 6 10.00 Fair CLR 0 0 0% 29.8 0.0
14 13:35 NW 7 10.00 Partly Cloudy SCT037 0 0 0% 29.8 0.0
14 13:20 W 8 10.00 Partly Cloudy SCT035 SCT041 SCT050 0 0 0% 29.8 0.0
14 12:55 NW 7 10.00 Mostly Cloudy SCT037 BKN044 BKN050 0 0 0% 29.81 0.0
14 12:35 W 8 10.00 Partly Cloudy SCT037 SCT044 0 0 0% 29.81 0.0
14 12:15 W 6 10.00 Partly Cloudy SCT035 0 0 0% 29.82 0.0
14 11:55 W 5 10.00 Partly Cloudy SCT035 SCT043 SCT100 0 0 0% 29.82 0.0
14 11:35 SW 5 10.00 Partly Cloudy SCT035 SCT043 SCT110 0 0 0% 29.82 0.0
Date Time (cdt) Wind (mph) Vis. (mi.) Weather Sky Cond. Air Dwpt Max. Min. Relative Humidity Wind Chill (°F) Heat Index (°F) altimeter (in) sea level (mb) 1 hr 3 hr 6 hr
6 hour
Temperature (ºF) Pressure Precipitation (in)